#timestamp,LO_Frequency,Hit 
1503313215.4,286047002.4,N
1503313235.2,286046999.7,N
1503313255.1,286047000.1,N
1503313256.0,286047000.1,N
1503313275.8,286047000.3,N
1503313295.6,286047000.5,N
1503313315.4,286046998.1,N
1503313335.3,286046998.9,N
1503313355.1,286047000.8,N
1503313375.8,286046998.8,N
1503313395.7,286046996.5,N
1503313415.5,286046999.4,N
1503313435.3,286046999.6,N
1503313455.2,286046996.9,N
1503313475.9,286046997.1,N
1503313495.7,286046996.7,N
1503313515.6,286046997.1,N
1503313535.4,286046997.2,N
1503313555.2,286046997.3,N
1503313575.1,286046994.9,N
1503313576.0,286046994.9,N
1503313595.8,286046997.5,N
1503313615.6,286046995.2,N
1503313635.4,286046995.4,N
1503313655.3,286046995.6,N
1503313675.1,286046995.9,N
1503313695.8,286046996.4,N
1503313715.7,286046993.8,N
1503313735.5,286046993.9,N
1503313755.3,286046993.6,N
1503313775.2,286046994.5,N
1503313795.9,286046994.6,N
1503313815.7,286046994.8,N
1503313835.6,286046992.0,P
1503313855.4,286046995.4,N
1503313875.2,286046996.2,N
1503313895.1,286046995.4,N
1503313896.0,286046995.4,N
1503313915.8,286046996.3,N
1503313935.6,286046994.1,P
1503313955.5,286047001.1,N
1503313975.3,286046998.5,N
1503313995.1,286046999.2,N
1503314015.9,286046999.3,N
1503314035.7,286046999.2,N
1503314055.5,286046996.5,N
1503314075.4,286046996.9,N
1503314095.2,286046997.4,N
1503314115.0,286046997.7,N
1503314115.9,286046997.7,N
1503314135.8,286046998.9,N
1503314155.6,286046996.9,N
1503314175.4,286046995.2,N
1503314195.2,286046997.9,N
1503314215.1,286046998.0,N
1503314216.0,286046998.0,N
1503314235.8,286046998.0,N
1503314255.6,286046997.4,N
1503314275.5,286046997.0,N
1503314295.3,286046998.0,N
1503314315.1,286046995.2,P
1503314335.9,286046998.9,N
1503314355.7,286046998.5,N
1503314375.5,286046998.9,N
1503314395.4,286047000.6,N
1503314415.2,286046998.3,N
1503314435.0,286046998.5,N
1503314435.9,286046998.5,N
1503314455.8,286046998.4,N
1503314475.6,286047000.5,N
1503314495.4,286046999.7,N
1503314515.3,286047000.0,N
1503314535.1,286046999.9,N
1503314536.0,286046999.9,N
1503314555.8,286047000.1,N
1503314575.7,286047000.4,N
1503314595.5,286047000.4,N
1503314615.3,286047000.3,N
1503314635.1,286047000.3,N
1503314655.9,286047001.0,N
1503314675.7,286047000.2,N
1503314695.5,286047000.2,N
1503314715.4,286047000.2,N
1503314735.2,286046999.9,N
1503314755.0,286047000.2,N
1503314755.9,286047000.2,N
1503314775.8,286047000.5,N
1503314795.6,286046999.8,N
1503314815.4,286047000.0,N
1503314835.3,286047002.7,N
1503314855.1,286047002.7,N
1503314856.0,286047002.7,N
1503314875.8,286047002.7,N
1503314895.7,286047002.7,N
1503314915.5,286047002.7,N
1503314935.3,286047000.2,N
1503314955.1,286047002.4,N
1503314975.9,286047002.4,N
1503314995.7,286047002.8,N
1503315015.5,286046999.7,N
1503315035.4,286047002.1,N
1503315055.2,286047000.0,N
1503315075.0,286047000.0,N
1503315075.9,286047000.0,N
1503315095.8,286047002.8,N
1503315115.6,286046999.8,N
1503315135.4,286047000.4,N
1503315155.3,286047000.3,N
1503315175.1,286046999.7,N
1503315176.0,286046999.7,N
1503315195.8,286046999.8,N
1503315215.7,286047002.8,N
1503315235.5,286047000.0,N
1503315255.3,286047002.8,N
1503315275.2,286047002.7,N
1503315295.9,286047002.7,N
1503315315.7,286047002.0,N
1503315335.5,286047002.0,N
1503315355.4,286047000.9,N
1503315375.2,286046999.9,N
1503315395.0,286047002.8,N
1503315395.9,286047002.8,N
1503315415.8,286047002.1,N
1503315435.6,286047002.7,N
1503315455.4,286047002.1,N
1503315475.3,286047002.4,N
1503315495.1,286047002.7,N
1503315496.0,286047002.7,N
1503315515.8,286047002.8,N
1503315535.7,286047002.7,N
1503315555.5,286047002.8,N
1503315575.3,286047002.8,N
1503315595.2,286047002.7,N
1503315615.9,286047002.7,N
1503315635.7,286046999.8,N
1503315655.6,286047002.2,N
1503315675.4,286047002.2,N
1503315695.2,286047000.2,N
1503315715.0,286047001.3,N
1503315715.9,286047001.3,N
1503315735.8,286047001.6,N
1503315755.6,286047001.5,N
1503315775.4,286047002.5,N
1503315795.3,286047001.5,N
1503315815.1,286047001.8,N
1503315835.8,286047004.4,P
1503315855.7,286046998.1,N
1503315875.5,286047000.3,N
1503315895.3,286047000.0,N
1503315915.2,286046999.9,N
1503315935.9,286047000.2,N
1503315955.7,286047000.6,N
1503315975.6,286046999.9,N
1503315995.4,286047002.7,N
1503316015.2,286047000.2,N
1503316035.1,286047002.7,N
1503316036.0,286047002.7,N
1503316055.8,286047002.7,N
1503316075.3,286047001.2,N
1503316095.1,286047001.7,N
1503316115.9,286047002.1,N
1503316135.7,286047002.8,N
1503316155.5,286047000.0,N
1503316175.3,286047002.7,N
1503316195.2,286047000.6,N
1503316215.0,286047000.1,N
1503316215.9,286047000.1,N
1503316235.7,286047000.5,N
1503316255.6,286047000.1,N
1503316275.4,286046999.8,N
1503316295.2,286047000.3,N
1503316315.1,286047002.2,N
1503316316.0,286047002.2,N
1503316335.8,286047002.8,N
1503316355.6,286047002.5,N
1503316375.5,286047000.3,N
1503316395.3,286046999.8,N
1503316415.1,286047000.5,N
1503316435.9,286047000.6,N
1503316455.7,286046999.9,N
1503316475.5,286047001.0,N
1503316495.3,286047000.0,N
1503316515.2,286047001.0,N
1503316535.0,286047001.0,N
1503316535.9,286047001.0,N
1503316555.7,286047000.8,N
1503316575.6,286047000.5,N
1503316595.4,286047000.5,N
1503316615.2,286047000.5,N
1503316635.1,286047000.6,N
1503316636.0,286047000.6,N
1503316655.8,286047000.9,N
1503316675.6,286047001.1,N
1503316695.5,286047000.4,N
1503316715.3,286047000.9,N
1503316735.1,286047001.0,N
1503316755.9,286046998.2,N
1503316775.7,286046998.3,N
1503316795.5,286047001.2,N
